Wetterdaten am Flugplatz MSG Übersee

alte Datensätze gelöscht
68 aktuelle Wetterdateneinträge gefunden

Datum/Uhrzeit   Windrichtung/Grad    Geschw./kmh    Temp./C°    Luftdruck/mbar    Spannung/Volt   
2026-05-06 00:20 NW/314 7 17 1013 12,23
2026-05-06 00:30 NW/296 10 17 1013 12,26
2026-05-06 00:40 NW/294 11 17 1013 12,32
2026-05-06 00:50 NW/296 11 17 1013 12,30
2026-05-06 01:00 W/285 8 16 1013 12,33
2026-05-06 01:10 W/270 5 16 1013 12,36
2026-05-06 01:20 W/274 3 16 1013 12,18
2026-05-06 01:30 S/170 5 16 1013 12,23
2026-05-06 01:40 SO/135 6 15 1013 12,26
2026-05-06 01:50 SO/125 4 15 1012 12,29
2026-05-06 02:01 W/248 3 15 1012 12,18
2026-05-06 02:11 W/263 4 15 1012 12,23
2026-05-06 02:21 W/276 6 15 1012 12,24
2026-05-06 02:31 SO/157 6 14 1012 12,29
2026-05-06 02:41 SO/143 5 14 1012 12,18
2026-05-06 02:51 SO/138 3 14 1012 12,24
2026-05-06 03:01 SO/137 1 14 1012 12,29
2026-05-06 03:11 SO/124 4 13 1012 12,33
2026-05-06 03:21 NW/303 2 13 1012 12,38
2026-05-06 03:31 NW/320 4 13 1012 12,26
2026-05-06 03:41 NW/297 5 13 1012 12,32
2026-05-06 03:51 SO/156 6 12 1012 12,35
2026-05-06 04:01 SO/146 5 12 1012 12,27
2026-05-06 04:11 SO/141 6 12 1012 12,29
2026-05-06 04:21 SO/144 6 12 1012 12,23
2026-05-06 04:31 S/182 5 12 1012 12,21
2026-05-06 04:42 S/201 17 12 1012 12,32
2026-05-06 04:52 SW/211 14 12 1012 12,32
2026-05-06 05:02 SW/233 8 12 1012 12,26
2026-05-06 05:12 SW/226 4 12 1012 12,18
2026-05-06 05:22 SW/210 4 12 1012 12,24
2026-05-06 05:32 SO/123 5 12 1011 12,27
2026-05-06 05:42 SO/144 6 12 1011 12,27
2026-05-06 05:52 SO/153 9 12 1011 12,23
2026-05-06 06:02 SO/146 6 12 1011 12,26
2026-05-06 06:12 S/162 4 12 1011 12,24
2026-05-06 06:22 SO/147 6 12 1011 12,20
2026-05-06 06:32 S/202 9 12 1011 12,20
2026-05-06 06:42 S/168 7 12 1011 12,29
2026-05-06 06:52 SO/150 7 12 1011 12,27
2026-05-06 07:03 SO/130 5 13 1011 12,27
2026-05-06 07:13 SO/122 5 13 1011 12,27
2026-05-06 07:23 SO/143 7 14 1011 12,21
2026-05-06 07:33 SO/145 6 14 1011 12,26
2026-05-06 07:43 SO/150 2 15 1011 12,27
2026-05-06 07:53 SO/122 4 15 1011 12,33
2026-05-06 08:03 O/112 2 16 1011 12,32
2026-05-06 08:13 O/110 2 16 1011 12,36
2026-05-06 08:23 O/101 4 17 1011 12,38
2026-05-06 08:33 O/106 3 18 1011 12,46
2026-05-06 08:43 O/85 4 19 1010 12,54
2026-05-06 08:53 NO/62 3 19 1010 12,43
2026-05-06 09:03 NO/49 3 20 1011 12,45
2026-05-06 09:14 N/1 9 21 1010 12,52
2026-05-06 09:24 NW/331 14 21 1010 12,58
2026-05-06 09:34 NW/332 13 22 1010 12,71
2026-05-06 09:44 N/345 11 22 1010 12,65
2026-05-06 09:54 N/347 11 23 1010 12,64
2026-05-06 10:04 N/357 12 23 1010 12,23
2026-05-06 10:14 N/354 15 24 1010 12,45
2026-05-06 10:24 N/1 16 24 1010 12,46
2026-05-06 10:34 N/346 17 24 1009 12,51
2026-05-06 10:44 NO/49 12 25 1010 12,54
2026-05-06 10:54 O/86 13 25 1010 12,57
2026-05-06 11:04 O/84 12 25 1010 12,55
2026-05-06 11:15 O/89 15 25 1010 12,58
2026-05-06 11:25 O/81 17 25 1010 12,58
2026-05-06 11:35 O/87 17 24 1010 12,64